When you browse on this site, cookies collect data to enhance your experience and personalize the content and advertising you see.
Visit our Privacy Policy to learn more. By continuing to use the site, you agree to this use of cookies and data.
  • In Spain
  • List of Countries
  • For 7 days
  • Water Temperature
  • Weather Map
  • Weather Widgets
  • user-avatar
    Login

    Hourly Weather Nuwejba

    Today, 21 October, Monday

    Time Temperature Precipitation Wind Pressure Humidity
    00:00 +20°C° 0 mm 2 mps 693 mmHg 51%
    01:00 +19°C° 0 mm 2 mps 693 mmHg 51%
    02:00 +20°C° 0 mm 1 mps 692 mmHg 51%
    03:00 +20°C° 0 mm 1 mps 692 mmHg 51%
    04:00 +19°C° 0 mm 1 mps 692 mmHg 50%
    05:00 +19°C° 0 mm 1 mps 692 mmHg 50%
    06:00 +21°C° 0 mm 1 mps 692 mmHg 44%
    07:00 +23°C° 0 mm 1 mps 693 mmHg 39%
    08:00 +24°C° 0 mm 1 mps 693 mmHg 33%
    09:00 +26°C° 0 mm 2 mps 693 mmHg 30%
    10:00 +27°C° 0 mm 2 mps 693 mmHg 27%
    11:00 +29°C° 0 mm 3 mps 693 mmHg 24%
    12:00 +29°C° 0 mm 4 mps 693 mmHg 24%
    13:00 +30°C° 0 mm 4 mps 692 mmHg 23%
    14:00 +30°C° 0 mm 5 mps 692 mmHg 23%
    15:00 +29°C° 0 mm 5 mps 692 mmHg 25%
    16:00 +28°C° 0 mm 5 mps 691 mmHg 28%
    17:00 +27°C° 0 mm 5 mps 691 mmHg 30%
    18:00 +26°C° 0 mm 4 mps 691 mmHg 33%
    19:00 +25°C° 0 mm 3 mps 691 mmHg 36%
    20:00 +23°C° 0 mm 2 mps 691 mmHg 39%
    21:00 +23°C° 0 mm 2 mps 691 mmHg 41%
    22:00 +22°C° 0 mm 1 mps 691 mmHg 43%
    23:00 +22°C° 0 mm 1 mps 691 mmHg 45%

    Tomorrow, 22 October, Tuesday

    Time Temperature Precipitation Wind Pressure Humidity
    00:00 +21°C° 0 mm 1 mps 690 mmHg 47%
    01:00 +21°C° 0 mm 1 mps 690 mmHg 48%
    02:00 +20°C° 0 mm 1 mps 689 mmHg 49%
    03:00 +20°C° 0 mm 1 mps 689 mmHg 50%
    04:00 +20°C° 0 mm 1 mps 689 mmHg 51%
    05:00 +19°C° 0 mm 1 mps 689 mmHg 51%
    06:00 +21°C° 0 mm 1 mps 689 mmHg 46%
    07:00 +23°C° 0 mm 1 mps 690 mmHg 41%
    08:00 +25°C° 0 mm 1 mps 690 mmHg 36%
    09:00 +26°C° 0 mm 1 mps 691 mmHg 32%
    10:00 +28°C° 0 mm 2 mps 691 mmHg 28%
    11:00 +29°C° 0 mm 2 mps 691 mmHg 25%
    12:00 +30°C° 0 mm 3 mps 690 mmHg 23%
    13:00 +30°C° 0 mm 4 mps 690 mmHg 22%
    14:00 +32°C° 0 mm 4 mps 689 mmHg 20%
    15:00 +29°C° 0 mm 3 mps 689 mmHg 23%
    16:00 +28°C° 0 mm 2 mps 689 mmHg 25%
    17:00 +27°C° 0 mm 2 mps 689 mmHg 27%
    18:00 +26°C° 0 mm 1 mps 689 mmHg 30%
    19:00 +25°C° 0 mm 1 mps 689 mmHg 33%
    20:00 +24°C° 0 mm 1 mps 689 mmHg 36%
    21:00 +23°C° 0 mm 1 mps 689 mmHg 38%
    22:00 +23°C° 0 mm 1 mps 689 mmHg 39%
    23:00 +22°C° 0 mm 1 mps 689 mmHg 41%

    Day after tomorrow, 23 October, Wednesday

    Time Temperature Precipitation Wind Pressure Humidity
    00:00 +22°C° 0 mm 1 mps 689 mmHg 45%
    01:00 +21°C° 0 mm 1 mps 688 mmHg 49%
    02:00 +20°C° 0 mm 1 mps 688 mmHg 53%
    03:00 +20°C° 0.1 mm 1 mps 688 mmHg 54%
    04:00 +19°C° 0.1 mm 1 mps 688 mmHg 56%
    05:00 +19°C° 0.1 mm 1 mps 688 mmHg 57%
    06:00 +20°C° 0 mm 1 mps 689 mmHg 53%
    07:00 +22°C° 0 mm 1 mps 689 mmHg 49%
    08:00 +23°C° 0 mm 1 mps 690 mmHg 45%
    09:00 +25°C° 0 mm 2 mps 690 mmHg 40%
    10:00 +26°C° 0 mm 2 mps 690 mmHg 35%
    11:00 +28°C° 0 mm 3 mps 690 mmHg 30%
    12:00 +28°C° 0 mm 3 mps 690 mmHg 28%
    13:00 +29°C° 0 mm 4 mps 689 mmHg 26%
    14:00 +29°C° 0 mm 4 mps 689 mmHg 25%
    15:00 +28°C° 0 mm 4 mps 689 mmHg 29%
    16:00 +26°C° 0 mm 4 mps 689 mmHg 34%
    17:00 +25°C° 0 mm 4 mps 689 mmHg 38%
    18:00 +23°C° 0 mm 4 mps 689 mmHg 43%
    19:00 +22°C° 0 mm 3 mps 689 mmHg 47%
    20:00 +21°C° 0 mm 3 mps 690 mmHg 51%
    21:00 +20°C° 0 mm 2 mps 690 mmHg 58%
    22:00 +19°C° 0 mm 2 mps 689 mmHg 65%
    23:00 +18°C° 0 mm 2 mps 689 mmHg 71%

    24 October, Thursday

    Time Temperature Precipitation Wind Pressure Humidity
    00:00 +18°C° 0 mm 2 mps 689 mmHg 73%
    01:00 +18°C° 0 mm 1 mps 689 mmHg 75%
    02:00 +18°C° 0 mm 1 mps 689 mmHg 76%
    03:00 +18°C° 0 mm 1 mps 689 mmHg 77%
    04:00 +16°C° 0 mm 1 mps 689 mmHg 78%
    05:00 +16°C° 0 mm 1 mps 689 mmHg 79%
    06:00 +18°C° 0 mm 1 mps 689 mmHg 73%
    07:00 +19°C° 0 mm 1 mps 690 mmHg 67%
    08:00 +20°C° 0 mm 1 mps 690 mmHg 61%
    09:00 +22°C° 0 mm 1 mps 690 mmHg 54%
    10:00 +23°C° 0 mm 1 mps 690 mmHg 46%
    11:00 +24°C° 0 mm 1 mps 691 mmHg 39%
    12:00 +25°C° 0 mm 2 mps 690 mmHg 35%
    13:00 +26°C° 0 mm 2 mps 690 mmHg 31%
    14:00 +27°C° 0 mm 3 mps 690 mmHg 27%
    15:00 +26°C° 0 mm 3 mps 690 mmHg 30%
    16:00 +25°C° 0 mm 3 mps 690 mmHg 33%
    17:00 +24°C° 0 mm 3 mps 689 mmHg 35%
    18:00 +22°C° 0 mm 3 mps 690 mmHg 37%
    19:00 +21°C° 0 mm 3 mps 690 mmHg 38%
    20:00 +20°C° 0 mm 3 mps 690 mmHg 39%
    21:00 +19°C° 0 mm 3 mps 690 mmHg 47%
    22:00 +19°C° 0 mm 3 mps 690 mmHg 55%
    23:00 +18°C° 0 mm 2 mps 690 mmHg 62%

    25 October, Friday

    Time Temperature Precipitation Wind Pressure Humidity
    00:00 +17°C° 0 mm 2 mps 690 mmHg 66%
    01:00 +17°C° 0 mm 2 mps 690 mmHg 69%
    02:00 +16°C° 0 mm 1 mps 689 mmHg 72%
    03:00 +16°C° 0 mm 1 mps 689 mmHg 74%
    04:00 +16°C° 0 mm 1 mps 689 mmHg 75%
    05:00 +15°C° 0 mm 1 mps 689 mmHg 76%
    06:00 +18°C° 0 mm 1 mps 690 mmHg 70%
    07:00 +19°C° 0 mm 1 mps 690 mmHg 65%
    08:00 +20°C° 0 mm 1 mps 691 mmHg 59%
    09:00 +21°C° 0 mm 1 mps 691 mmHg 51%
    10:00 +23°C° 0 mm 2 mps 691 mmHg 43%
    11:00 +24°C° 0 mm 2 mps 691 mmHg 35%
    12:00 +25°C° 0 mm 3 mps 691 mmHg 33%
    13:00 +25°C° 0 mm 4 mps 691 mmHg 32%
    14:00 +26°C° 0 mm 5 mps 691 mmHg 30%
    15:00 +25°C° 0 mm 5 mps 691 mmHg 33%
    16:00 +23°C° 0 mm 5 mps 691 mmHg 36%
    17:00 +22°C° 0 mm 6 mps 691 mmHg 39%
    18:00 +21°C° 0 mm 5 mps 691 mmHg 43%
    19:00 +20°C° 0 mm 4 mps 691 mmHg 46%
    20:00 +20°C° 0 mm 3 mps 691 mmHg 50%
    21:00 +19°C° 0 mm 3 mps 691 mmHg 54%
    22:00 +18°C° 0 mm 2 mps 691 mmHg 58%
    23:00 +17°C° 0 mm 2 mps 691 mmHg 62%

    26 October, Saturday

    Time Temperature Precipitation Wind Pressure Humidity
    00:00 +17°C° 0 mm 2 mps 691 mmHg 64%
    01:00 +18°C° 0 mm 1 mps 691 mmHg 67%
    02:00 +16°C° 0 mm 1 mps 691 mmHg 69%
    03:00 +16°C° 0 mm 1 mps 691 mmHg 71%
    04:00 +15°C° 0 mm 1 mps 691 mmHg 72%
    05:00 +15°C° 0 mm 1 mps 690 mmHg 74%
    06:00 +16°C° 0 mm 1 mps 691 mmHg 69%
    07:00 +19°C° 0 mm 1 mps 692 mmHg 63%
    08:00 +20°C° 0 mm 1 mps 692 mmHg 58%
    09:00 +20°C° 0 mm 2 mps 692 mmHg 51%
    10:00 +23°C° 0 mm 2 mps 692 mmHg 44%
    11:00 +24°C° 0 mm 2 mps 693 mmHg 38%
    12:00 +25°C° 0 mm 3 mps 692 mmHg 35%
    13:00 +26°C° 0 mm 3 mps 692 mmHg 32%
    14:00 +27°C° 0 mm 3 mps 692 mmHg 29%
    15:00 +26°C° 0 mm 4 mps 691 mmHg 31%
    16:00 +25°C° 0 mm 4 mps 691 mmHg 34%
    17:00 +23°C° 0 mm 5 mps 691 mmHg 36%
    18:00 +22°C° 0 mm 4 mps 691 mmHg 41%
    19:00 +21°C° 0 mm 4 mps 691 mmHg 46%
    20:00 +20°C° 0 mm 3 mps 691 mmHg 51%
    21:00 +19°C° 0 mm 3 mps 691 mmHg 58%
    22:00 +18°C° 0 mm 2 mps 691 mmHg 66%
    23:00 +17°C° 0 mm 2 mps 691 mmHg 74%

    27 October, Sunday

    Time Temperature Precipitation Wind Pressure Humidity
    00:00 +17°C° 0 mm 2 mps 691 mmHg 76%
    01:00 +17°C° 0 mm 2 mps 691 mmHg 78%
    02:00 +16°C° 0 mm 2 mps 690 mmHg 81%
    03:00 +16°C° 0 mm 2 mps 690 mmHg 82%
    04:00 +15°C° 0 mm 2 mps 690 mmHg 83%
    05:00 +15°C° 0 mm 2 mps 690 mmHg 84%
    06:00 +16°C° 0 mm 2 mps 691 mmHg 78%
    07:00 +17°C° 0 mm 2 mps 691 mmHg 72%
    08:00 +18°C° 0 mm 2 mps 691 mmHg 65%
    09:00 +20°C° 0 mm 2 mps 692 mmHg 56%
    10:00 +23°C° 0 mm 2 mps 692 mmHg 47%
    11:00 +25°C° 0 mm 2 mps 692 mmHg 39%
    12:00 +26°C° 0 mm 3 mps 692 mmHg 34%
    13:00 +27°C° 0 mm 3 mps 691 mmHg 30%
    14:00 +28°C° 0 mm 3 mps 691 mmHg 26%
    15:00 +26°C° 0 mm 3 mps 691 mmHg 30%
    16:00 +25°C° 0 mm 4 mps 690 mmHg 34%
    17:00 +23°C° 0 mm 4 mps 690 mmHg 37%
    18:00 +22°C° 0 mm 4 mps 690 mmHg 43%
    19:00 +21°C° 0 mm 4 mps 691 mmHg 49%
    20:00 +19°C° 0 mm 3 mps 691 mmHg 55%
    21:00 +19°C° 0 mm 3 mps 691 mmHg 61%
    22:00 +18°C° 0 mm 3 mps 691 mmHg 67%
    23:00 +17°C° 0 mm 2 mps 690 mmHg 74%
    Show more